Location: Multiple Mirror Telescope
(31.6889°N, 110.8853°W)
Time: 10:06:47
(UTC-07:00)

Hubble Space Telescope - Pass Details

Date: 28 May 2024
Orbit: 511 x 515 km, 28.5° (Epoch: 14 June)

Event Time Altitude Azimuth Distance (km) Brightness Sun altitude
Rises 19:59:13 0° 248° (WSW) 2,610 4.8 -7.7°
Reaches altitude 10° 20:01:31 10° 241° (WSW) 1,724 3.8 -8.1°
Maximum altitude 20:05:18 42° 170° (S) 732 1.2 -8.8°
Enters shadow 20:08:57 11° 99° (E) 1,675 2.7 -9.5°
